Year,Month,Day,Hour,Minute,Value (Times are PST for temperature in C)
2013,08,12,00,00,14.90
2013,08,12,00,01,14.90
2013,08,12,00,02,14.90
2013,08,12,00,03,14.90
2013,08,12,00,04,14.90
2013,08,12,00,05,14.90
2013,08,12,00,06,14.90
2013,08,12,00,07,14.90
2013,08,12,00,08,14.80
2013,08,12,00,09,14.80
2013,08,12,00,10,14.80
2013,08,12,00,11,14.80
2013,08,12,00,12,14.80
2013,08,12,00,13,14.80
2013,08,12,00,14,14.80
2013,08,12,00,15,14.70
2013,08,12,00,16,14.70
2013,08,12,00,17,14.70
2013,08,12,00,18,14.70
2013,08,12,00,19,14.70
2013,08,12,00,20,14.70
2013,08,12,00,21,14.60
2013,08,12,00,22,14.60
2013,08,12,00,23,14.60
2013,08,12,00,24,14.60
2013,08,12,00,25,14.60
2013,08,12,00,26,14.60
2013,08,12,00,27,14.50
2013,08,12,00,28,14.50
2013,08,12,00,29,14.50
2013,08,12,00,30,14.50
2013,08,12,00,31,14.50
2013,08,12,00,32,14.50
2013,08,12,00,33,14.50
2013,08,12,00,34,14.50
2013,08,12,00,35,14.50
2013,08,12,00,36,14.50
2013,08,12,00,37,14.50
2013,08,12,00,38,14.50
2013,08,12,00,39,14.50
2013,08,12,00,40,14.50
2013,08,12,00,41,14.50
2013,08,12,00,42,14.50
2013,08,12,00,43,14.50
2013,08,12,00,44,14.50
2013,08,12,00,45,14.50
2013,08,12,00,46,14.60
2013,08,12,00,47,14.60
2013,08,12,00,48,14.60
2013,08,12,00,49,14.60
2013,08,12,00,50,14.60
2013,08,12,00,51,14.70
2013,08,12,00,52,14.70
2013,08,12,00,53,14.70
2013,08,12,00,54,14.70
2013,08,12,00,55,14.70
2013,08,12,00,56,14.70
2013,08,12,00,57,14.70
2013,08,12,00,58,14.70
2013,08,12,00,59,14.70
2013,08,12,01,00,14.70
2013,08,12,01,01,14.70
2013,08,12,01,02,14.70
2013,08,12,01,03,14.80
2013,08,12,01,04,14.80
2013,08,12,01,05,14.80
2013,08,12,01,06,14.80
2013,08,12,01,07,14.80
2013,08,12,01,08,14.80
2013,08,12,01,09,14.80
2013,08,12,01,10,14.80
2013,08,12,01,11,14.80
2013,08,12,01,12,14.80
2013,08,12,01,13,14.80
2013,08,12,01,14,14.80
2013,08,12,01,15,14.80
2013,08,12,01,16,14.80
2013,08,12,01,17,14.80
2013,08,12,01,18,14.80
2013,08,12,01,19,14.80
2013,08,12,01,20,14.80
2013,08,12,01,21,14.80
2013,08,12,01,22,14.80
2013,08,12,01,23,14.80
2013,08,12,01,24,14.80
2013,08,12,01,25,14.80
2013,08,12,01,26,14.80
2013,08,12,01,27,14.80
2013,08,12,01,28,14.80
2013,08,12,01,29,14.80
2013,08,12,01,30,14.80
2013,08,12,01,31,14.80
2013,08,12,01,32,14.80
2013,08,12,01,33,14.80
2013,08,12,01,34,14.80
2013,08,12,01,35,14.80
2013,08,12,01,36,14.70
2013,08,12,01,37,14.70
2013,08,12,01,38,14.70
2013,08,12,01,39,14.70
2013,08,12,01,40,14.70
2013,08,12,01,41,14.70
2013,08,12,01,42,14.60
2013,08,12,01,43,14.60
2013,08,12,01,44,14.60
2013,08,12,01,45,14.60
2013,08,12,01,46,14.60
2013,08,12,01,47,14.60
2013,08,12,01,48,14.60
2013,08,12,01,49,14.60
2013,08,12,01,50,14.60
2013,08,12,01,51,14.60
2013,08,12,01,52,14.60
2013,08,12,01,53,14.60
2013,08,12,01,54,14.60
2013,08,12,01,55,14.60
2013,08,12,01,56,14.60
2013,08,12,01,57,14.60
2013,08,12,01,58,14.60
2013,08,12,01,59,14.50
2013,08,12,02,00,14.50
2013,08,12,02,01,14.50
2013,08,12,02,02,14.50
2013,08,12,02,03,14.40
2013,08,12,02,04,14.40
2013,08,12,02,05,14.40
2013,08,12,02,06,14.40
2013,08,12,02,07,14.40
2013,08,12,02,08,14.40
2013,08,12,02,09,14.40
2013,08,12,02,10,14.40
2013,08,12,02,11,14.40
2013,08,12,02,12,14.30
2013,08,12,02,13,14.30
2013,08,12,02,14,14.30
2013,08,12,02,15,14.30
2013,08,12,02,16,14.30
2013,08,12,02,17,14.30
2013,08,12,02,18,14.30
2013,08,12,02,19,14.30
2013,08,12,02,20,14.40
2013,08,12,02,21,14.40
2013,08,12,02,22,14.40
2013,08,12,02,23,14.40
2013,08,12,02,24,14.40
2013,08,12,02,25,14.40
2013,08,12,02,26,14.40
2013,08,12,02,27,14.30
2013,08,12,02,28,14.30
2013,08,12,02,29,14.30
2013,08,12,02,30,14.30
2013,08,12,02,31,14.30
2013,08,12,02,32,14.20
2013,08,12,02,33,14.20
2013,08,12,02,34,14.20
2013,08,12,02,35,14.20
2013,08,12,02,36,14.20
2013,08,12,02,37,14.20
2013,08,12,02,38,14.20
2013,08,12,02,39,14.20
2013,08,12,02,40,14.20
2013,08,12,02,41,14.20
2013,08,12,02,42,14.20
2013,08,12,02,43,14.20
2013,08,12,02,44,14.20
2013,08,12,02,45,14.20
2013,08,12,02,46,14.20
2013,08,12,02,47,14.20
2013,08,12,02,48,14.20
2013,08,12,02,49,14.20
2013,08,12,02,50,14.20
2013,08,12,02,51,14.20
2013,08,12,02,52,14.10
2013,08,12,02,53,14.10
2013,08,12,02,54,14.10
2013,08,12,02,55,14.10
2013,08,12,02,56,14.00
2013,08,12,02,57,14.00
2013,08,12,02,58,14.00
2013,08,12,02,59,14.00
2013,08,12,03,00,14.00
2013,08,12,03,01,14.00
2013,08,12,03,02,14.00
2013,08,12,03,03,14.00
2013,08,12,03,04,14.00
2013,08,12,03,05,14.00
2013,08,12,03,06,14.00
2013,08,12,03,07,14.00
2013,08,12,03,08,14.00
2013,08,12,03,09,14.00
2013,08,12,03,10,14.00
2013,08,12,03,11,14.00
2013,08,12,03,12,14.00
2013,08,12,03,13,14.00
2013,08,12,03,14,14.00
2013,08,12,03,15,14.00
2013,08,12,03,16,14.00
2013,08,12,03,17,14.00
2013,08,12,03,18,14.00
2013,08,12,03,19,14.00
2013,08,12,03,20,14.00
2013,08,12,03,21,14.00
2013,08,12,03,22,14.00
2013,08,12,03,23,14.00
2013,08,12,03,24,14.00
2013,08,12,03,25,14.00
2013,08,12,03,26,14.00
2013,08,12,03,27,14.00
2013,08,12,03,28,14.00
2013,08,12,03,29,14.00
2013,08,12,03,30,14.00
2013,08,12,03,31,14.00
2013,08,12,03,32,14.00
2013,08,12,03,33,14.00
2013,08,12,03,34,14.00
2013,08,12,03,35,13.90
2013,08,12,03,36,13.90
2013,08,12,03,37,13.90
2013,08,12,03,38,13.90
2013,08,12,03,39,13.90
2013,08,12,03,40,13.80
2013,08,12,03,41,13.80
2013,08,12,03,42,13.80
2013,08,12,03,43,13.80
2013,08,12,03,44,13.80
2013,08,12,03,45,13.70
2013,08,12,03,46,13.70
2013,08,12,03,47,13.70
2013,08,12,03,48,13.70
2013,08,12,03,49,13.70
2013,08,12,03,50,13.70
2013,08,12,03,51,13.70
2013,08,12,03,52,13.70
2013,08,12,03,53,13.70
2013,08,12,03,54,13.60
2013,08,12,03,55,13.60
2013,08,12,03,56,13.60
2013,08,12,03,57,13.60
2013,08,12,03,58,13.60
2013,08,12,03,59,13.60
2013,08,12,04,00,13.60
2013,08,12,04,01,13.50
2013,08,12,04,02,13.50
2013,08,12,04,03,13.50
2013,08,12,04,04,13.50
2013,08,12,04,05,13.40
2013,08,12,04,06,13.40
2013,08,12,04,07,13.40
2013,08,12,04,08,13.30
2013,08,12,04,09,13.30
2013,08,12,04,10,13.30
2013,08,12,04,11,13.30
2013,08,12,04,12,13.30
2013,08,12,04,13,13.30
2013,08,12,04,14,13.30
2013,08,12,04,15,13.30
2013,08,12,04,16,13.30
2013,08,12,04,17,13.30
2013,08,12,04,18,13.30
2013,08,12,04,19,13.30
2013,08,12,04,20,13.30
2013,08,12,04,21,13.30
2013,08,12,04,22,13.30
2013,08,12,04,23,13.30
2013,08,12,04,24,13.30
2013,08,12,04,25,13.30
2013,08,12,04,26,13.30
2013,08,12,04,27,13.30
2013,08,12,04,28,13.30
2013,08,12,04,29,13.30
2013,08,12,04,30,13.30
2013,08,12,04,31,13.30
2013,08,12,04,32,13.30
2013,08,12,04,33,13.30
2013,08,12,04,34,13.30
2013,08,12,04,35,13.30
2013,08,12,04,36,13.30
2013,08,12,04,37,13.30
2013,08,12,04,38,13.30
2013,08,12,04,39,13.30
2013,08,12,04,40,13.30
2013,08,12,04,41,13.30
2013,08,12,04,42,13.30
2013,08,12,04,43,13.30
2013,08,12,04,44,13.30
2013,08,12,04,45,13.30
2013,08,12,04,46,13.30
2013,08,12,04,47,13.30
2013,08,12,04,48,13.30
2013,08,12,04,49,13.30
2013,08,12,04,50,13.30
2013,08,12,04,51,13.30
2013,08,12,04,52,13.40
2013,08,12,04,53,13.40
2013,08,12,04,54,13.40
2013,08,12,04,55,13.50
2013,08,12,04,56,13.50
2013,08,12,04,57,13.50
2013,08,12,04,58,13.60
2013,08,12,04,59,13.60
2013,08,12,05,00,13.60
2013,08,12,05,01,13.60
2013,08,12,05,02,13.70
2013,08,12,05,03,13.70
2013,08,12,05,04,13.70
2013,08,12,05,05,13.70
2013,08,12,05,06,13.70
2013,08,12,05,07,13.70
2013,08,12,05,08,13.70
2013,08,12,05,09,13.70
2013,08,12,05,10,13.70
2013,08,12,05,11,13.70
2013,08,12,05,12,13.70
2013,08,12,05,13,13.70
2013,08,12,05,14,13.70
2013,08,12,05,15,13.70
2013,08,12,05,16,13.70
2013,08,12,05,17,13.70
2013,08,12,05,18,13.70
2013,08,12,05,19,13.70
2013,08,12,05,20,13.70
2013,08,12,05,21,13.70
2013,08,12,05,22,13.70
2013,08,12,05,23,13.70
2013,08,12,05,24,13.70
2013,08,12,05,25,13.70
2013,08,12,05,26,13.70
2013,08,12,05,27,13.70
2013,08,12,05,28,13.70
2013,08,12,05,29,13.70
2013,08,12,05,30,13.70
2013,08,12,05,31,13.70
2013,08,12,05,32,13.70
2013,08,12,05,33,13.70
2013,08,12,05,34,13.70
2013,08,12,05,35,13.70
2013,08,12,05,36,13.70
2013,08,12,05,37,13.70
2013,08,12,05,38,13.70
2013,08,12,05,39,13.70
2013,08,12,05,40,13.70
2013,08,12,05,41,13.70
2013,08,12,05,42,13.70
2013,08,12,05,43,13.70
2013,08,12,05,44,13.70
2013,08,12,05,45,13.70
2013,08,12,05,46,13.70
2013,08,12,05,47,13.70
2013,08,12,05,48,13.70
2013,08,12,05,49,13.70
2013,08,12,05,50,13.70
2013,08,12,05,51,13.70
2013,08,12,05,52,13.70
2013,08,12,05,53,13.80
2013,08,12,05,54,13.80
2013,08,12,05,55,13.80
2013,08,12,05,56,13.80
2013,08,12,05,57,13.80
2013,08,12,05,58,13.80
2013,08,12,05,59,13.80
2013,08,12,06,00,13.80
2013,08,12,06,01,13.80
2013,08,12,06,02,13.80
2013,08,12,06,03,13.80
2013,08,12,06,04,13.80
2013,08,12,06,05,13.90
2013,08,12,06,06,13.90
2013,08,12,06,07,13.90
2013,08,12,06,08,13.90
2013,08,12,06,09,13.90
2013,08,12,06,10,14.00
2013,08,12,06,11,14.00
2013,08,12,06,12,14.00
2013,08,12,06,13,14.00
2013,08,12,06,14,14.00
2013,08,12,06,15,14.00
2013,08,12,06,16,14.00
2013,08,12,06,17,14.00
2013,08,12,06,18,14.00
2013,08,12,06,19,14.10
2013,08,12,06,20,14.10
2013,08,12,06,21,14.10
2013,08,12,06,22,14.10
2013,08,12,06,23,14.10
2013,08,12,06,24,14.00
2013,08,12,06,25,14.00
2013,08,12,06,26,14.00
2013,08,12,06,27,14.00
2013,08,12,06,28,13.90
2013,08,12,06,29,13.90
2013,08,12,06,30,13.90
2013,08,12,06,31,13.90
2013,08,12,06,32,13.80
2013,08,12,06,33,13.80
2013,08,12,06,34,13.80
2013,08,12,06,35,13.70
2013,08,12,06,36,13.70
2013,08,12,06,37,13.70
2013,08,12,06,38,13.70
2013,08,12,06,39,13.70
2013,08,12,06,40,13.70
2013,08,12,06,41,13.70
2013,08,12,06,42,13.70
2013,08,12,06,43,13.70
2013,08,12,06,44,13.70
2013,08,12,06,45,13.70
2013,08,12,06,46,13.70
2013,08,12,06,47,13.70
2013,08,12,06,48,13.70
2013,08,12,06,49,13.70
2013,08,12,06,50,13.70
2013,08,12,06,51,13.70
2013,08,12,06,52,13.70
2013,08,12,06,53,13.70
2013,08,12,06,54,13.70
2013,08,12,06,55,13.70
2013,08,12,06,56,13.80
2013,08,12,06,57,13.80
2013,08,12,06,58,13.80
2013,08,12,06,59,13.80
2013,08,12,07,00,13.80
2013,08,12,07,01,13.80
2013,08,12,07,02,13.80
2013,08,12,07,03,13.80
2013,08,12,07,04,13.90
2013,08,12,07,05,13.90
2013,08,12,07,06,13.90
2013,08,12,07,07,13.90
2013,08,12,07,08,14.00
2013,08,12,07,09,14.00
2013,08,12,07,10,14.00
2013,08,12,07,11,14.00
2013,08,12,07,12,14.10
2013,08,12,07,13,14.10
2013,08,12,07,14,14.10
2013,08,12,07,15,14.10
2013,08,12,07,16,14.20
2013,08,12,07,17,14.20
2013,08,12,07,18,14.20
2013,08,12,07,19,14.20
2013,08,12,07,20,14.20
2013,08,12,07,21,14.20
2013,08,12,07,22,14.20
2013,08,12,07,23,14.30
2013,08,12,07,24,14.30
2013,08,12,07,25,14.30
2013,08,12,07,26,14.30
2013,08,12,07,27,14.40
2013,08,12,07,28,14.40
2013,08,12,07,29,14.40
2013,08,12,07,30,14.50
2013,08,12,07,31,14.50
2013,08,12,07,32,14.50
2013,08,12,07,33,14.50
2013,08,12,07,34,14.60
2013,08,12,07,35,14.60
2013,08,12,07,36,14.60
2013,08,12,07,37,14.70
2013,08,12,07,38,14.70
2013,08,12,07,39,14.70
2013,08,12,07,40,14.70
2013,08,12,07,41,14.80
2013,08,12,07,42,14.80
2013,08,12,07,43,14.80
2013,08,12,07,44,14.80
2013,08,12,07,45,14.80
2013,08,12,07,46,14.80
2013,08,12,07,47,14.80
2013,08,12,07,48,14.80
2013,08,12,07,49,14.80
2013,08,12,07,50,14.70
2013,08,12,07,51,14.70
2013,08,12,07,52,14.70
2013,08,12,07,53,14.60
2013,08,12,07,54,14.60
2013,08,12,07,55,14.60
2013,08,12,07,56,14.60
2013,08,12,07,57,14.60
2013,08,12,07,58,14.50
2013,08,12,07,59,14.50
2013,08,12,08,00,14.50
2013,08,12,08,01,14.50
2013,08,12,08,02,14.50
2013,08,12,08,03,14.40
2013,08,12,08,04,14.40
2013,08,12,08,05,14.40
2013,08,12,08,06,14.40
2013,08,12,08,07,14.40
2013,08,12,08,08,14.40
2013,08,12,08,09,14.40
2013,08,12,08,10,14.40
2013,08,12,08,11,14.40
2013,08,12,08,12,14.40
2013,08,12,08,13,14.40
2013,08,12,08,14,14.40
2013,08,12,08,15,14.40
2013,08,12,08,16,14.50
2013,08,12,08,17,14.50
2013,08,12,08,18,14.60
2013,08,12,08,19,14.60
2013,08,12,08,20,14.70
2013,08,12,08,21,14.80
2013,08,12,08,22,14.90
2013,08,12,08,23,15.00
2013,08,12,08,24,15.10
2013,08,12,08,25,15.20
2013,08,12,08,26,15.30
2013,08,12,08,27,15.30
2013,08,12,08,28,15.40
2013,08,12,08,29,15.50
2013,08,12,08,30,15.60
2013,08,12,08,31,15.70
2013,08,12,08,32,15.80
2013,08,12,08,33,15.80
2013,08,12,08,34,15.90
2013,08,12,08,35,15.90
2013,08,12,08,36,16.00
2013,08,12,08,37,16.10
2013,08,12,08,38,16.10
2013,08,12,08,39,16.10
2013,08,12,08,40,16.10
2013,08,12,08,41,16.10
2013,08,12,08,42,16.10
2013,08,12,08,43,16.00
2013,08,12,08,44,15.90
2013,08,12,08,45,15.80
2013,08,12,08,46,15.80
2013,08,12,08,47,15.70
2013,08,12,08,48,15.60
2013,08,12,08,49,15.60
2013,08,12,08,50,15.60
2013,08,12,08,51,15.60
2013,08,12,08,52,15.60
2013,08,12,08,53,15.60
2013,08,12,08,54,15.60
2013,08,12,08,55,15.70
2013,08,12,08,56,15.70
2013,08,12,08,57,15.70
2013,08,12,08,58,15.80
2013,08,12,08,59,15.80
2013,08,12,09,00,15.80
2013,08,12,09,01,15.80
2013,08,12,09,02,15.80
2013,08,12,09,03,15.80
2013,08,12,09,04,15.80
2013,08,12,09,05,15.90
2013,08,12,09,06,15.90
2013,08,12,09,07,16.00
2013,08,12,09,08,16.10
2013,08,12,09,09,16.10
2013,08,12,09,10,16.10
2013,08,12,09,11,16.20
2013,08,12,09,12,16.20
2013,08,12,09,13,16.20
2013,08,12,09,14,16.30
2013,08,12,09,15,16.30
2013,08,12,09,16,16.40
2013,08,12,09,17,16.40
2013,08,12,09,18,16.40
2013,08,12,09,19,16.50
2013,08,12,09,20,16.60
2013,08,12,09,21,16.60
2013,08,12,09,22,16.60
2013,08,12,09,23,16.70
2013,08,12,09,24,16.70
2013,08,12,09,25,16.70
2013,08,12,09,26,16.70
2013,08,12,09,27,16.80
2013,08,12,09,28,16.80
2013,08,12,09,29,16.90
2013,08,12,09,30,16.90
2013,08,12,09,31,17.00
2013,08,12,09,32,17.00
2013,08,12,09,33,17.10
2013,08,12,09,34,17.10
2013,08,12,09,35,17.20
2013,08,12,09,36,17.20
2013,08,12,09,37,17.20
2013,08,12,09,38,17.20
2013,08,12,09,39,17.30
2013,08,12,09,40,17.30
2013,08,12,09,41,17.30
2013,08,12,09,42,17.30
2013,08,12,09,43,17.30
2013,08,12,09,44,17.30
2013,08,12,09,45,17.30
2013,08,12,09,46,17.20
2013,08,12,09,47,17.20
2013,08,12,09,48,17.10
2013,08,12,09,49,17.00
2013,08,12,09,50,17.00
2013,08,12,09,51,17.00
2013,08,12,09,52,16.90
2013,08,12,09,53,16.90
2013,08,12,09,54,16.90
2013,08,12,09,55,16.80
2013,08,12,09,56,16.80
2013,08,12,09,57,16.80
2013,08,12,09,58,16.80
2013,08,12,09,59,16.80
2013,08,12,10,00,16.90
2013,08,12,10,01,16.90
2013,08,12,10,02,16.90
2013,08,12,10,03,16.90
2013,08,12,10,04,16.90
2013,08,12,10,05,16.90
2013,08,12,10,06,16.90
2013,08,12,10,07,16.80
2013,08,12,10,08,16.80
2013,08,12,10,09,16.70
2013,08,12,10,10,16.70
2013,08,12,10,11,16.70
2013,08,12,10,12,16.80
2013,08,12,10,13,16.80
2013,08,12,10,14,16.80
2013,08,12,10,15,16.80
2013,08,12,10,16,16.80
2013,08,12,10,17,16.80
2013,08,12,10,18,16.80
2013,08,12,10,19,16.80
2013,08,12,10,20,16.90
2013,08,12,10,21,16.90
2013,08,12,10,22,16.90
2013,08,12,10,23,16.80
2013,08,12,10,24,16.80
2013,08,12,10,25,16.80
2013,08,12,10,26,16.80
2013,08,12,10,27,16.80
2013,08,12,10,28,16.80
2013,08,12,10,29,16.90
2013,08,12,10,30,16.90
2013,08,12,10,31,16.90
2013,08,12,10,32,17.00
2013,08,12,10,33,17.00
2013,08,12,10,34,17.00
2013,08,12,10,35,17.00
2013,08,12,10,36,17.10
2013,08,12,10,37,17.10
2013,08,12,10,38,17.10
2013,08,12,10,39,17.10
2013,08,12,10,40,17.10
2013,08,12,10,41,17.20
2013,08,12,10,42,17.20
2013,08,12,10,43,17.20
2013,08,12,10,44,17.20
2013,08,12,10,45,17.20
2013,08,12,10,46,17.30
2013,08,12,10,47,17.30
2013,08,12,10,48,17.30
2013,08,12,10,49,17.30
2013,08,12,10,50,17.30
2013,08,12,10,51,17.40
2013,08,12,10,52,17.40
2013,08,12,10,53,17.40
2013,08,12,10,54,17.50
2013,08,12,10,55,17.40
2013,08,12,10,56,17.40
2013,08,12,10,57,17.40
2013,08,12,10,58,17.30
2013,08,12,10,59,17.30
2013,08,12,11,00,17.20
2013,08,12,11,01,17.10
2013,08,12,11,02,17.10
2013,08,12,11,03,17.00
2013,08,12,11,04,17.00
2013,08,12,11,05,16.90
2013,08,12,11,06,16.90
2013,08,12,11,07,16.80
2013,08,12,11,08,16.70
2013,08,12,11,09,16.50
2013,08,12,11,10,16.40
2013,08,12,11,11,16.30
2013,08,12,11,12,16.20
2013,08,12,11,13,16.10
2013,08,12,11,14,16.10
2013,08,12,11,15,16.10
2013,08,12,11,16,16.10
2013,08,12,11,17,16.10
2013,08,12,11,18,16.10
2013,08,12,11,19,16.10
2013,08,12,11,20,16.20
2013,08,12,11,21,16.30
2013,08,12,11,22,16.40
2013,08,12,11,23,16.50
2013,08,12,11,24,16.60
2013,08,12,11,25,16.70
2013,08,12,11,26,16.70
2013,08,12,11,27,16.70
2013,08,12,11,28,16.70
2013,08,12,11,29,16.70
2013,08,12,11,30,16.70
2013,08,12,11,31,16.70
2013,08,12,11,32,16.70
2013,08,12,11,33,16.80
2013,08,12,11,34,16.80
2013,08,12,11,35,16.80
2013,08,12,11,36,16.90
2013,08,12,11,37,17.00
2013,08,12,11,38,17.00
2013,08,12,11,39,17.20
2013,08,12,11,40,17.30
2013,08,12,11,41,17.40
2013,08,12,11,42,17.50
2013,08,12,11,43,17.60
2013,08,12,11,44,17.70
2013,08,12,11,45,17.70
2013,08,12,11,46,17.80
2013,08,12,11,47,17.80
2013,08,12,11,48,17.80
2013,08,12,11,49,17.70
2013,08,12,11,50,17.80
2013,08,12,11,51,17.70
2013,08,12,11,52,17.70
2013,08,12,11,53,17.70
2013,08,12,11,54,17.70
2013,08,12,11,55,17.80
2013,08,12,11,56,17.80
2013,08,12,11,57,17.80
2013,08,12,11,58,17.90
2013,08,12,11,59,18.00
2013,08,12,12,00,18.10
2013,08,12,12,01,18.10
2013,08,12,12,02,18.20
2013,08,12,12,03,18.20
2013,08,12,12,04,18.20
2013,08,12,12,05,18.20
2013,08,12,12,06,18.10
2013,08,12,12,07,18.10
2013,08,12,12,08,18.20
2013,08,12,12,09,18.30
2013,08,12,12,10,18.50
2013,08,12,12,11,18.60
2013,08,12,12,12,18.70
2013,08,12,12,13,18.70
2013,08,12,12,14,18.80
2013,08,12,12,15,18.90
2013,08,12,12,16,18.90
2013,08,12,12,17,19.00
2013,08,12,12,18,19.10
2013,08,12,12,19,19.10
2013,08,12,12,20,19.10
2013,08,12,12,21,19.20
2013,08,12,12,22,19.30
2013,08,12,12,23,19.40
2013,08,12,12,24,19.50
2013,08,12,12,25,19.60
2013,08,12,12,26,19.70
2013,08,12,12,27,19.80
2013,08,12,12,28,19.90
2013,08,12,12,29,19.90
2013,08,12,12,30,20.10
2013,08,12,12,31,20.20
2013,08,12,12,32,20.20
2013,08,12,12,33,20.20
2013,08,12,12,34,20.20
2013,08,12,12,35,20.20
2013,08,12,12,36,20.20
2013,08,12,12,37,20.20
2013,08,12,12,38,20.20
2013,08,12,12,39,20.20
2013,08,12,12,40,20.30
2013,08,12,12,41,20.30
2013,08,12,12,42,20.40
2013,08,12,12,43,20.50
2013,08,12,12,44,20.50
2013,08,12,12,45,20.50
2013,08,12,12,46,20.50
2013,08,12,12,47,20.60
2013,08,12,12,48,20.60
2013,08,12,12,49,20.60
2013,08,12,12,50,20.70
2013,08,12,12,51,20.70
2013,08,12,12,52,20.70
2013,08,12,12,53,20.70
2013,08,12,12,54,20.70
2013,08,12,12,55,20.70
2013,08,12,12,56,20.80
2013,08,12,12,57,20.80
2013,08,12,12,58,20.90
2013,08,12,12,59,21.00
2013,08,12,13,00,21.10
2013,08,12,13,01,21.10
2013,08,12,13,02,21.30
2013,08,12,13,03,21.40
2013,08,12,13,04,21.40
2013,08,12,13,05,21.60
2013,08,12,13,06,21.60
2013,08,12,13,07,21.60
2013,08,12,13,08,21.60
2013,08,12,13,09,21.60
2013,08,12,13,10,21.50
2013,08,12,13,11,21.40
2013,08,12,13,12,21.30
2013,08,12,13,13,21.30
2013,08,12,13,14,21.10
2013,08,12,13,15,21.10
2013,08,12,13,16,21.00
2013,08,12,13,17,21.00
2013,08,12,13,18,20.90
2013,08,12,13,19,20.90
2013,08,12,13,20,20.90
2013,08,12,13,21,20.90
2013,08,12,13,22,20.90
2013,08,12,13,23,20.90
2013,08,12,13,24,20.90
2013,08,12,13,25,20.90
2013,08,12,13,26,20.90
2013,08,12,13,27,21.00
2013,08,12,13,28,21.10
2013,08,12,13,29,21.20
2013,08,12,13,30,21.20
2013,08,12,13,31,21.10
2013,08,12,13,32,21.10
2013,08,12,13,33,21.10
2013,08,12,13,34,21.20
2013,08,12,13,35,21.20
2013,08,12,13,36,21.30
2013,08,12,13,37,21.30
2013,08,12,13,38,21.30
2013,08,12,13,39,21.30
2013,08,12,13,40,21.20
2013,08,12,13,41,21.20
2013,08,12,13,42,21.30
2013,08,12,13,43,21.30
2013,08,12,13,44,21.30
2013,08,12,13,45,21.30
2013,08,12,13,46,21.30
2013,08,12,13,47,21.30
2013,08,12,13,48,21.30
2013,08,12,13,49,21.30
2013,08,12,13,50,21.40
2013,08,12,13,51,21.40
2013,08,12,13,52,21.50
2013,08,12,13,53,21.60
2013,08,12,13,54,21.70
2013,08,12,13,55,21.90
2013,08,12,13,56,22.10
2013,08,12,13,57,22.20
2013,08,12,13,58,22.20
2013,08,12,13,59,22.20
2013,08,12,14,00,22.30
2013,08,12,14,01,22.20
2013,08,12,14,02,22.20
2013,08,12,14,03,22.20
2013,08,12,14,04,22.10
2013,08,12,14,05,22.10
2013,08,12,14,06,22.10
2013,08,12,14,07,22.20
2013,08,12,14,08,22.20
2013,08,12,14,09,22.30
2013,08,12,14,10,22.30
2013,08,12,14,11,22.30
2013,08,12,14,12,22.40
2013,08,12,14,13,22.50
2013,08,12,14,14,22.60
2013,08,12,14,15,22.70
2013,08,12,14,16,22.80
2013,08,12,14,17,22.80
2013,08,12,14,18,22.90
2013,08,12,14,19,22.90
2013,08,12,14,20,22.90
2013,08,12,14,21,22.80
2013,08,12,14,22,22.70
2013,08,12,14,23,22.70
2013,08,12,14,24,22.70
2013,08,12,14,25,22.60
2013,08,12,14,26,22.60
2013,08,12,14,27,22.60
2013,08,12,14,28,22.50
2013,08,12,14,29,22.60
2013,08,12,14,30,22.60
2013,08,12,14,31,22.60
2013,08,12,14,32,22.60
2013,08,12,14,33,22.60
2013,08,12,14,34,22.60
2013,08,12,14,35,22.60
2013,08,12,14,36,22.50
2013,08,12,14,37,22.40
2013,08,12,14,38,22.40
2013,08,12,14,39,22.40
2013,08,12,14,40,22.50
2013,08,12,14,41,22.50
2013,08,12,14,42,22.50
2013,08,12,14,43,22.40
2013,08,12,14,44,22.30
2013,08,12,14,45,22.20
2013,08,12,14,46,22.00
2013,08,12,14,47,21.90
2013,08,12,14,48,21.80
2013,08,12,14,49,21.70
2013,08,12,14,50,21.70
2013,08,12,14,51,21.70
2013,08,12,14,52,21.60
2013,08,12,14,53,21.60
2013,08,12,14,54,21.50
2013,08,12,14,55,21.40
2013,08,12,14,56,21.40
2013,08,12,14,57,21.40
2013,08,12,14,58,21.40
2013,08,12,14,59,21.40
2013,08,12,15,00,21.50
2013,08,12,15,01,21.60
2013,08,12,15,02,21.60
2013,08,12,15,03,21.60
2013,08,12,15,04,21.60
2013,08,12,15,05,21.70
2013,08,12,15,06,21.70
2013,08,12,15,07,21.80
2013,08,12,15,08,22.00
2013,08,12,15,09,22.00
2013,08,12,15,10,22.00
2013,08,12,15,11,22.00
2013,08,12,15,12,22.00
2013,08,12,15,13,22.20
2013,08,12,15,14,22.20
2013,08,12,15,15,22.20
2013,08,12,15,16,22.30
2013,08,12,15,17,22.40
2013,08,12,15,18,22.60
2013,08,12,15,19,22.70
2013,08,12,15,20,22.90
2013,08,12,15,21,22.90
2013,08,12,15,22,22.90
2013,08,12,15,23,22.90
2013,08,12,15,24,22.80
2013,08,12,15,25,22.80
2013,08,12,15,26,22.80
2013,08,12,15,27,22.80
2013,08,12,15,28,22.80
2013,08,12,15,29,22.80
2013,08,12,15,30,22.70
2013,08,12,15,31,22.70
2013,08,12,15,32,22.60
2013,08,12,15,33,22.60
2013,08,12,15,34,22.60
2013,08,12,15,35,22.60
2013,08,12,15,36,22.60
2013,08,12,15,37,22.50
2013,08,12,15,38,22.60
2013,08,12,15,39,22.60
2013,08,12,15,40,22.70
2013,08,12,15,41,22.70
2013,08,12,15,42,22.80
2013,08,12,15,43,22.80
2013,08,12,15,44,22.80
2013,08,12,15,45,22.80
2013,08,12,15,46,22.80
2013,08,12,15,47,22.70
2013,08,12,15,48,22.60
2013,08,12,15,49,22.50
2013,08,12,15,50,22.60
2013,08,12,15,51,22.70
2013,08,12,15,52,22.70
2013,08,12,15,53,22.80
2013,08,12,15,54,22.90
2013,08,12,15,55,22.90
2013,08,12,15,56,22.90
2013,08,12,15,57,22.90
2013,08,12,15,58,22.90
2013,08,12,15,59,22.90
2013,08,12,16,00,22.90
2013,08,12,16,01,22.70
2013,08,12,16,02,22.60
2013,08,12,16,03,22.60
2013,08,12,16,04,22.60
2013,08,12,16,05,22.60
2013,08,12,16,06,22.60
2013,08,12,16,07,22.70
2013,08,12,16,08,22.80
2013,08,12,16,09,22.90
2013,08,12,16,10,22.90
2013,08,12,16,11,23.10
2013,08,12,16,12,23.10
2013,08,12,16,13,23.10
2013,08,12,16,14,23.10
2013,08,12,16,15,23.00
2013,08,12,16,16,22.90
2013,08,12,16,17,22.80
2013,08,12,16,18,22.80
2013,08,12,16,19,22.70
2013,08,12,16,20,22.60
2013,08,12,16,21,22.50
2013,08,12,16,22,22.40
2013,08,12,16,23,22.30
2013,08,12,16,24,22.20
2013,08,12,16,25,22.10
2013,08,12,16,26,22.10
2013,08,12,16,27,22.20
2013,08,12,16,28,22.20
2013,08,12,16,29,22.20
2013,08,12,16,30,22.10
2013,08,12,16,31,22.20
2013,08,12,16,32,22.20
2013,08,12,16,33,22.10
2013,08,12,16,34,22.10
2013,08,12,16,35,22.10
2013,08,12,16,36,22.10
2013,08,12,16,37,22.10
2013,08,12,16,38,22.20
2013,08,12,16,39,22.20
2013,08,12,16,40,22.10
2013,08,12,16,41,22.10
2013,08,12,16,42,22.10
2013,08,12,16,43,22.10
2013,08,12,16,44,22.10
2013,08,12,16,45,22.10
2013,08,12,16,46,22.10
2013,08,12,16,47,22.20
2013,08,12,16,48,22.30
2013,08,12,16,49,22.20
2013,08,12,16,50,22.20
2013,08,12,16,51,22.30
2013,08,12,16,52,22.40
2013,08,12,16,53,22.40
2013,08,12,16,54,22.40
2013,08,12,16,55,22.40
2013,08,12,16,56,22.40
2013,08,12,16,57,22.50
2013,08,12,16,58,22.40
2013,08,12,16,59,22.40
2013,08,12,17,00,22.40
2013,08,12,17,01,22.50
2013,08,12,17,02,22.50
2013,08,12,17,03,22.50
2013,08,12,17,04,22.40
2013,08,12,17,05,22.40
2013,08,12,17,06,22.30
2013,08,12,17,07,22.30
2013,08,12,17,08,22.30
2013,08,12,17,09,22.20
2013,08,12,17,10,22.20
2013,08,12,17,11,22.30
2013,08,12,17,12,22.40
2013,08,12,17,13,22.40
2013,08,12,17,14,22.50
2013,08,12,17,15,22.50
2013,08,12,17,16,22.50
2013,08,12,17,17,22.50
2013,08,12,17,18,22.50
2013,08,12,17,19,22.40